DW3478 Weather Reports


time (UTC)temp
C
wind
direction
speed
KPH
gust
KPH
rain 1hr
cm
rain 24hr
cm
rain mn
cm
humidity
%
barometer
mb
20260504050305 16 51 4.8 8.0 0.00 0.03 0.00 96 1012.2
20260504045805 16 43 3.2 4.8 0.00 0.03 0.00 96 1012.2
20260504044304 16 85 0.0 0.0 0.00 0.03 0.00 96 1012.0
20260504043805 16 5 0.0 0.0 0.00 0.03 0.00 96 1012.0
20260504043305 16 5 0.0 0.0 0.00 0.03 0.00 96 1012.2
20260504041805 16 5 0.0 0.0 0.00 0.03 0.00 96 1012.1
20260504041305 16 5 0.0 0.0 0.00 0.03 0.00 96 1012.2
20260504040805 16 5 0.0 0.0 0.00 0.03 0.00 96 1012.2
20260504040305 16 5 0.0 0.0 0.00 0.03 0.00 96 1012.2
20260504035305 16 5 0.0 0.0 0.00 0.03 0.00 96 1012.2
20260504034805 16 5 0.0 0.0 0.00 0.03 0.00 96 1011.7
20260504034305 16 5 0.0 0.0 0.00 0.03 0.00 96 1012.0
20260504030305 16 5 0.0 0.0 0.00 0.03 0.00 96 1012.3
20260504025805 16 5 0.0 0.0 0.00 0.03 0.00 96 1012.0
20260504023305 15 5 1.6 3.2 0.00 0.03 0.00 96 1012.5
20260504022805 15 5 1.6 4.8 0.00 0.03 0.00 96 1012.6
20260504022305 15 313 1.6 3.2 0.00 0.03 0.00 96 1012.5
20260504021305 15 313 0.0 1.6 0.00 0.03 0.00 96 1012.2
20260504014305 16 79 3.2 4.8 0.00 0.03 0.00 96 1012.8
20260504013805 16 76 3.2 4.8 0.00 0.03 0.00 96 1012.6
20260504013304 16 37 1.6 4.8 0.00 0.03 0.00 96 1012.6
20260504012805 16 88 3.2 4.8 0.00 0.03 0.00 96 1012.8
20260504011305 16 19 0.0 0.0 0.00 0.03 0.00 96 1012.9
20260504010805 16 19 0.0 0.0 0.00 0.03 0.00 96 1012.9
20260504002304 16 19 1.6 3.2 0.00 0.03 0.00 96 1013.3
20260504001805 16 19 1.6 3.2 0.00 0.03 0.00 96 1013.4
20260503235805 16 100 0.0 0.0 0.00 0.03 0.00 96 1013.3
20260503235305 16 100 0.0 0.0 0.00 0.03 0.00 96 1013.7
20260503234804 16 100 0.0 1.6 0.00 0.03 0.00 96 1013.4
20260503234305 16 100 1.6 4.8 0.00 0.03 0.00 96 1013.5
20260503233805 16 65 1.6 3.2 0.00 0.03 0.00 96 1013.5
20260503233304 16 65 0.0 1.6 0.00 0.03 0.00 96 1013.6
20260503232804 16 65 0.0 1.6 0.00 0.03 0.00 96 1013.5
20260503232305 16 65 0.0 1.6 0.00 0.03 0.00 96 1013.4
20260503231805 16 65 1.6 3.2 0.00 0.03 0.00 96 1013.5
20260503231304 16 71 1.6 4.8 0.00 0.03 0.00 96 1013.6
20260503230805 16 89 3.2 4.8 0.00 0.03 0.00 96 1013.5
20260503222804 16 85 1.6 4.8 0.00 0.03 0.03 96 1013.6
20260503222304 16 79 3.2 4.8 0.00 0.03 0.03 96 1013.5
20260503221305 16 95 1.6 4.8 0.00 0.03 0.03 96 1013.6
20260503220805 16 95 3.2 4.8 0.00 0.03 0.03 96 1013.3
20260503220304 16 80 1.6 4.8 0.00 0.03 0.03 96 1013.7
20260503212804 15 69 1.6 3.2 0.00 0.03 0.03 96 1013.1
20260503212305 15 69 3.2 4.8 0.00 0.03 0.03 96 1012.9
20260503210804 15 150 1.6 3.2 0.00 0.03 0.03 96 1013.1
20260503202804 16 150 1.6 4.8 0.00 0.03 0.03 96 1012.8
20260503195805 15 93 3.2 4.8 0.00 0.03 0.03 96 1012.7
20260503195305 15 79 3.2 4.8 0.00 0.03 0.03 96 1012.7
20260503194805 15 109 1.6 4.8 0.00 0.03 0.03 96 1012.5
20260503194304 15 109 3.2 4.8 0.00 0.03 0.03 96 1012.5
20260503193805 16 116 1.6 3.2 0.00 0.03 0.03 96 1012.4
20260503193304 16 129 1.6 3.2 0.00 0.03 0.03 96 1012.4
20260503192805 16 165 1.6 4.8 0.00 0.03 0.03 96 1012.2
20260503191304 16 207 3.2 4.8 0.00 0.03 0.03 96 1012.4
20260503190805 16 141 3.2 4.8 0.00 0.03 0.03 96 1012.3
20260503190304 16 164 3.2 4.8 0.00 0.03 0.03 96 1012.4
20260503185805 16 163 3.2 4.8 0.00 0.03 0.03 96 1012.1
20260503185305 16 201 3.2 4.8 0.00 0.03 0.03 95 1012.0
20260503184304 16 126 1.6 4.8 0.00 0.03 0.03 95 1012.0
20260503183805 16 114 3.2 4.8 0.00 0.03 0.03 95 1012.3
20260503175804 16 153 1.6 3.2 0.00 0.03 0.03 96 1012.3
20260503175305 16 89 1.6 3.2 0.00 0.03 0.03 96 1012.3
20260503174804 16 101 1.6 3.2 0.00 0.03 0.03 95 1012.4
20260503174305 16 101 1.6 3.2 0.00 0.03 0.03 96 1012.1
20260503173804 16 101 1.6 4.8 0.00 0.03 0.03 96 1012.5
20260503173305 16 78 1.6 3.2 0.00 0.03 0.03 96 1012.5
20260503171304 16 132 0.0 3.2 0.00 0.03 0.03 95 1012.3
20260503170805 16 140 1.6 4.8 0.00 0.03 0.03 95 1012.5
20260503170304 16 144 3.2 4.8 0.00 0.03 0.03 96 1012.5
20260503150305 17 0 0.0 0.0 0.00 0.03 0.03 92 1012.9
20260503131305 17 120 1.6 4.8 0.00 0.03 0.03 92 1013.7
20260503130805 16 107 0.0 4.8 0.00 0.03 0.03 93 1013.7
20260503130305 16 174 3.2 4.8 0.00 0.03 0.03 93 1013.7
20260503110305 16 118 3.2 4.8 0.00 0.03 0.03 94 1014.1
20260503080805 16 128 4.8 9.7 0.00 0.00 0.00 86 1013.6
20260503072806 15 123 3.2 4.8 0.00 0.00 0.00 87 1013.6
20260503060305 15 82 0.0 1.6 0.00 0.00 0.00 86 1013.0
20260503054805 15 82 0.0 1.6 0.00 0.00 0.00 86 1013.1